Regional Weather Roundup
Issued by NWS

Home | Current Version | Previous Version | Text Only | Print | Product List | Glossary On
Versions: 1 2 3 4 5 6 7 8 9 10 11 12 13 14 15 16 17 18 19 20 21 22 23 24 25 26 27 28 29 30 31 32 33 34 35 36 37 38 39 40 41 42 43 44 45 46 47 48 49 50
000
ASUS43 KLSX 231607
RWRMO

WEATHER SUMMARY FOR MISSOURI
NATIONAL WEATHER SERVICE SPRINGFIELD MO
1100 AM CDT WED JUL 23 2014

NOTE: "FAIR" INDICATES FEW OR NO CLOUDS BELOW 12,000 FEET WITH NO
       SIGNIFICANT WEATHER AND/OR OBSTRUCTIONS TO VISIBILITY.
       CURRENT SKY AND/OR WEATHER CONDITIONS ARE NOT AVAILABLE FOR
       CHILLICOTHE AND FARMINGTON.

MOZ001>031-035>038-043-044-053-054-231700-
...NORTHERN AND WESTERN MISSOURI...

CITY           SKY/WX    TMP DP  RH WIND       PRES   REMARKS
KANSAS CTY INT PTSUNNY   80  67  64 N8        30.17R
KANSAS C DTWN  SUNNY     84  67  56 N7        30.15R
LEE`S SUMMIT   SUNNY     82  67  60 N10       30.15R
ST JOSEPH      MOSUNNY   79  67  66 NE7       30.19R
CHILLICOTHE      N/A     82  66  58 NE12      30.16R
KIRKSVILLE     SUNNY     80  66  62 NE15      30.17R

$$
MOZ066>068-077>081-088>096-101>105-231700-
...SOUTHWEST MISSOURI...

CITY           SKY/WX    TMP DP  RH WIND       PRES   REMARKS
SPRINGFIELD    CLOUDY    83  77  82 N8        30.10R HX  92
JOPLIN         CLOUDY    83  77  82 N9        30.10R HAZE    HX  92

$$
MOZ032>034-039>042-045>050-055>058-069>072-231700-
...CENTRAL MISSOURI...

CITY           SKY/WX    TMP DP  RH WIND       PRES   REMARKS
COLUMBIA       MOSUNNY   84  71  65 N9        30.10F
JEFFERSON CITY SUNNY     85  70  60 NE7       30.07F
ROLLA          PTSUNNY   84  74  71 N9        30.08F HX  91
SEDALIA        SUNNY     84  71  65 NE8       30.11F
WHITEMAN AFB   SUNNY     81  62  51 NE9       30.10F
OSAGE BEACH    CLOUDY    82  72  69 NE7       30.09S

$$
MOZ051-052-059>065-231700-
...EAST CENTRAL MISSOURI...

CITY           SKY/WX    TMP DP  RH WIND       PRES   REMARKS
ST LOUIS INTL  CLOUDY    80  73  79 N13       30.08R
SPIRIT OF STL  CLOUDY    81  73  76 N12       30.06R
ST CHARLES     CLOUDY    79  74  84 N13       30.07R

$$
MOZ072>076-082>087-097>100-106>115-231700-
...SOUTH CENTRAL AND SOUTHEAST MISSOURI...

CITY           SKY/WX    TMP DP  RH WIND       PRES   REMARKS
CAPE GIRARDEAU CLOUDY    81  73  76 CALM      30.03S
FARMINGTON     PTSUNNY   84  77  79 NE8       30.09R HX  94
POPLAR BLUFF   CLOUDY    84  72  67 SW8       30.03S
WEST PLAINS    SUNNY     89  77  67 CALM      30.08S HX 101

$$


USA.gov is the U.S. government's official web portal to all federal, state and local government web resources and services.